COSMOS 2251 DEB, 34420

Orbit data source: Space-Track

COSMOS 2251 DEB, 34420 is space debris in LEO originally from a launch on Wed, 16 Jun 1993 UTC launched from the Plesetsk Missile And Space Complex (PKMTR). The debris from Iridium 33, an American commercial communications satellite, has been tracked extensively since its accidental collision with the defunct Russian satellite Cosmos 2251 in 2009. This event, occurring at high speed in low Earth orbit (LEO), generated thousands of pieces of space debris, significantly increasing the risk of further collisions. The Iridium 33 debris cloud has impacted space traffic management and orbital debris mitigation strategies, making it a subject of ongoing study in space situational awareness.

Loading next visibility...
Identifier
34420, 1993-036RM
Orbit
LEO
Country
Flag of CISCIS
Related business
Manufacturer
Unknown
Mission
Spacecraft
Bus & Motor
Unknown
Mass
Unknown
Launch date (UTC)
1993-06-16 (33 years ago)
Launch vehicle
Unknown
Launch site
Plesetsk Missile And Space Complex (PKMTR)
Object type
Payload
Rocket body
Debris
Shape & HBR
Unknown shape, 0.1 m
Radar Cross Section
Medium (>0.1 m² and <1 m²)

Expand to show TLE details & history
Last TLE update: 10 hours ago

TLE from 10 hours ago
0 COSMOS 2251 DEB
1 34420U 93036RM  26236.51071358  .00000424  00000-0  72619-4 0  9992
2 34420  74.0347 330.9421 0104655  25.6150 347.4170 14.68755947935102
Epoch: 2026-08-24T12:15Z
TLE epoch observation values (Epoch: 2026-08-24T12:15:25.653Z)
Latitude
12.23151°
Longitude
177.83014°
Altitude
595.016 km
Speed
7.602 km/s
True Right ascension
22h 17m 54s
True Declination
12° 09' 32"
Sunlit
Object was in full shadow at epoch
Visualization orbit readout
Latitude
Unknown
Longitude
Unknown
Altitude
Unknown
Speed
Unknown
Apparent Right ascension
Unknown
Apparent Declination
Unknown
Sunlit
N/A
Visualization observer readout
Local Sidereal Time
13:48:21
Azimuth
Unknown
Elevation
Unknown
Doppler factor
Unknown
Orbital elements
Apogee altitude
736.315 km
Perigee altitude
588.945 km
Semi-major axis
7,040.767 km
Eccentricity
0.01047
Inclination
74.0347°
RAAN
330.9421°
Arg. of periapsis
25.615°
True anomaly
347.15236°
Mean anomaly
347.417°
Eccentric anomaly
347.28502°
Mean motion
3.67378 °/min
Orbital period
97.99 mins
BSTAR
0.000072619
Loading maneuver chart data...
Computing Atmospheric mass density...

Documentation

Showing up to 5 results
|